Time,TemperatureF,DewpointF,PressureIn,WindDirection,WindDirectionDegrees,WindSpeedMPH,WindSpeedGustMPH,Humidity,HourlyPrecipIn,Conditions,Clouds,dailyrainin,SoftwareType,DateUTC
2013-09-01 00:01:00,59.0,56.1,29.87,NW,315,0.0,0.0,90,0.00,,,0.00,WUHU21636XXSP,2013-09-01 04:01:00,
2013-09-01 00:02:00,59.0,56.1,29.87,NW,315,0.0,0.0,90,0.00,,,0.00,WUHU21636XXSP,2013-09-01 04:02:00,
2013-09-01 00:07:00,59.0,56.1,29.87,NW,315,0.0,0.0,90,0.00,,,0.00,WUHU21636XXSP,2013-09-01 04:07:00,
2013-09-01 00:12:00,59.0,56.1,29.87,NW,315,0.0,0.0,90,0.00,,,0.00,WUHU21636XXSP,2013-09-01 04:12:00,
2013-09-01 00:17:00,58.8,55.9,29.87,NW,315,0.0,0.0,90,0.00,,,0.00,WUHU21636XXSP,2013-09-01 04:17:00,
2013-09-01 00:22:00,58.8,55.9,29.87,NW,315,0.0,0.0,90,0.00,,,0.00,WUHU21636XXSP,2013-09-01 04:22:00,
2013-09-01 00:27:00,58.8,55.9,29.87,NW,315,0.0,0.0,90,0.00,,,0.00,WUHU21636XXSP,2013-09-01 04:27:00,
2013-09-01 00:32:00,58.6,55.8,29.86,NW,315,0.0,0.0,90,0.00,,,0.00,WUHU21636XXSP,2013-09-01 04:32:00,
2013-09-01 00:37:00,58.3,55.4,29.86,NW,315,0.0,0.0,90,0.00,,,0.00,WUHU21636XXSP,2013-09-01 04:37:00,
2013-09-01 00:42:00,58.3,55.4,29.86,NW,315,0.0,0.0,90,0.00,,,0.00,WUHU21636XXSP,2013-09-01 04:42:00,
2013-09-01 00:47:00,58.3,55.4,29.86,NW,315,0.0,0.0,90,0.00,,,0.00,WUHU21636XXSP,2013-09-01 04:47:00,
2013-09-01 00:52:00,58.3,55.4,29.86,NW,315,0.0,0.0,90,0.00,,,0.00,WUHU21636XXSP,2013-09-01 04:52:00,
2013-09-01 00:57:00,57.9,55.0,29.86,NW,315,0.0,0.0,90,0.00,,,0.00,WUHU21636XXSP,2013-09-01 04:57:00,
2013-09-01 01:02:00,57.9,55.0,29.86,NW,315,0.0,0.0,91,0.00,,,0.00,WUHU21636XXSP,2013-09-01 05:02:00,
2013-09-01 01:07:00,57.9,55.0,29.85,NW,315,0.0,0.0,91,0.00,,,0.00,WUHU21636XXSP,2013-09-01 05:07:00,
2013-09-01 01:12:00,57.9,55.0,29.85,NW,315,0.0,0.0,91,0.00,,,0.00,WUHU21636XXSP,2013-09-01 05:12:00,
2013-09-01 01:17:00,57.9,55.0,29.85,NW,315,0.0,0.0,91,0.00,,,0.00,WUHU21636XXSP,2013-09-01 05:17:00,
2013-09-01 01:22:00,57.9,55.0,29.85,NW,315,0.0,0.0,91,0.00,,,0.00,WUHU21636XXSP,2013-09-01 05:22:00,
2013-09-01 01:27:00,57.7,55.0,29.85,NW,315,0.0,0.0,91,0.00,,,0.00,WUHU21636XXSP,2013-09-01 05:27:00,
2013-09-01 01:32:00,57.7,55.0,29.85,NW,315,0.0,0.0,91,0.00,,,0.00,WUHU21636XXSP,2013-09-01 05:32:00,
2013-09-01 01:37:00,57.7,55.0,29.85,NW,315,0.0,18.3,91,0.00,,,0.00,WUHU21636XXSP,2013-09-01 05:37:00,
2013-09-01 01:42:00,58.1,55.4,29.85,NW,315,0.0,18.3,91,0.00,,,0.00,WUHU21636XXSP,2013-09-01 05:42:00,
2013-09-01 01:47:00,58.3,55.6,29.85,NW,315,0.0,8.2,91,0.00,,,0.00,WUHU21636XXSP,2013-09-01 05:47:00,
2013-09-01 01:52:00,57.9,55.2,29.84,NW,315,0.0,0.0,91,0.00,,,0.00,WUHU21636XXSP,2013-09-01 05:52:00,
2013-09-01 01:57:00,57.7,55.0,29.85,NW,315,0.0,0.0,91,0.00,,,0.00,WUHU21636XXSP,2013-09-01 05:57:00,
2013-09-01 02:02:00,57.7,55.0,29.84,NW,315,0.0,0.0,91,0.00,,,0.00,WUHU21636XXSP,2013-09-01 06:02:00,
2013-09-01 02:07:00,57.6,54.9,29.84,NW,315,0.0,0.0,91,0.00,,,0.00,WUHU21636XXSP,2013-09-01 06:07:00,
2013-09-01 02:12:00,57.7,55.0,29.84,NW,315,0.0,0.0,91,0.00,,,0.00,WUHU21636XXSP,2013-09-01 06:12:00,
2013-09-01 02:17:00,57.7,55.0,29.84,NW,315,0.0,0.0,91,0.00,,,0.00,WUHU21636XXSP,2013-09-01 06:17:00,
2013-09-01 02:22:00,57.9,55.2,29.84,NW,315,0.0,0.0,91,0.00,,,0.00,WUHU21636XXSP,2013-09-01 06:22:00,
2013-09-01 02:27:00,57.9,55.2,29.84,NW,315,0.0,0.0,91,0.00,,,0.00,WUHU21636XXSP,2013-09-01 06:27:00,
2013-09-01 02:32:00,57.9,55.2,29.83,NW,315,0.0,0.0,91,0.00,,,0.00,WUHU21636XXSP,2013-09-01 06:32:00,
2013-09-01 02:37:00,57.9,55.2,29.83,NW,315,0.0,0.0,91,0.00,,,0.00,WUHU21636XXSP,2013-09-01 06:37:00,
2013-09-01 02:42:00,58.1,55.4,29.83,NW,315,0.0,0.0,91,0.00,,,0.00,WUHU21636XXSP,2013-09-01 06:42:00,
2013-09-01 02:47:00,58.3,55.6,29.83,NW,315,0.0,0.0,91,0.00,,,0.00,WUHU21636XXSP,2013-09-01 06:47:00,
2013-09-01 02:52:00,57.9,55.2,29.83,NW,315,0.0,0.0,91,0.00,,,0.00,WUHU21636XXSP,2013-09-01 06:52:00,
2013-09-01 02:57:00,58.3,55.6,29.83,NW,315,0.0,0.0,91,0.00,,,0.00,WUHU21636XXSP,2013-09-01 06:57:00,
2013-09-01 03:02:00,58.6,55.9,29.83,NW,315,0.0,0.0,91,0.00,,,0.00,WUHU21636XXSP,2013-09-01 07:02:00,
2013-09-01 03:07:00,58.6,55.9,29.83,NW,315,0.0,0.0,91,0.00,,,0.00,WUHU21636XXSP,2013-09-01 07:07:00,
2013-09-01 03:12:00,59.0,56.3,29.83,NW,315,0.0,0.0,91,0.00,,,0.00,WUHU21636XXSP,2013-09-01 07:12:00,
2013-09-01 03:17:00,59.0,56.3,29.82,NW,315,0.0,0.0,91,0.00,,,0.00,WUHU21636XXSP,2013-09-01 07:17:00,
2013-09-01 03:22:00,59.4,56.7,29.82,NW,315,0.0,0.0,91,0.00,,,0.00,WUHU21636XXSP,2013-09-01 07:22:00,
2013-09-01 03:27:00,59.7,57.0,29.82,NW,315,0.0,0.0,91,0.00,,,0.00,WUHU21636XXSP,2013-09-01 07:27:00,
2013-09-01 03:32:00,59.9,57.2,29.82,NW,315,0.0,0.0,91,0.00,,,0.00,WUHU21636XXSP,2013-09-01 07:32:00,
2013-09-01 03:37:00,59.9,57.2,29.82,NW,315,0.0,0.0,91,0.00,,,0.00,WUHU21636XXSP,2013-09-01 07:37:00,
2013-09-01 03:42:00,59.9,57.2,29.82,NW,315,0.0,0.0,91,0.00,,,0.00,WUHU21636XXSP,2013-09-01 07:42:00,
2013-09-01 03:47:00,59.7,57.0,29.83,NW,315,0.0,0.0,91,0.00,,,0.00,WUHU21636XXSP,2013-09-01 07:47:00,
2013-09-01 03:52:00,59.7,57.0,29.83,NW,315,0.0,0.0,91,0.00,,,0.00,WUHU21636XXSP,2013-09-01 07:52:00,
2013-09-01 03:57:00,60.1,57.4,29.82,NW,315,2.2,2.2,91,0.00,,,0.00,WUHU21636XXSP,2013-09-01 07:57:00,
2013-09-01 04:02:00,60.6,57.7,29.82,SE,135,2.6,2.6,90,0.00,,,0.00,WUHU21636XXSP,2013-09-01 08:02:00,
2013-09-01 04:07:00,61.0,58.3,29.82,SSE,157,0.0,2.6,91,0.00,,,0.00,WUHU21636XXSP,2013-09-01 08:07:00,
2013-09-01 04:12:00,61.3,58.6,29.82,SSE,157,6.0,6.2,91,0.00,,,0.00,WUHU21636XXSP,2013-09-01 08:12:00,
2013-09-01 04:17:00,61.5,58.8,29.83,SSE,157,2.6,6.2,91,0.00,,,0.00,WUHU21636XXSP,2013-09-01 08:17:00,
2013-09-01 04:22:00,61.5,58.8,29.83,SSE,157,1.1,2.6,91,0.00,,,0.00,WUHU21636XXSP,2013-09-01 08:22:00,
2013-09-01 04:27:00,61.7,59.0,29.83,South,180,0.0,2.6,91,0.00,,,0.00,WUHU21636XXSP,2013-09-01 08:27:00,
2013-09-01 04:32:00,61.7,59.0,29.83,SSE,157,0.0,1.3,91,0.00,,,0.00,WUHU21636XXSP,2013-09-01 08:32:00,
2013-09-01 04:37:00,61.7,59.0,29.83,SSE,157,0.0,1.3,91,0.00,,,0.00,WUHU21636XXSP,2013-09-01 08:37:00,
2013-09-01 04:42:00,61.5,58.8,29.83,SSE,157,0.0,0.0,91,0.00,,,0.00,WUHU21636XXSP,2013-09-01 08:42:00,
2013-09-01 04:47:00,61.5,58.8,29.83,SSE,157,0.0,0.0,91,0.00,,,0.00,WUHU21636XXSP,2013-09-01 08:47:00,
2013-09-01 04:52:00,61.3,58.6,29.83,SSE,157,0.0,0.4,91,0.00,,,0.00,WUHU21636XXSP,2013-09-01 08:52:00,
2013-09-01 04:57:00,61.3,58.6,29.83,SSE,157,0.0,0.4,91,0.00,,,0.00,WUHU21636XXSP,2013-09-01 08:57:00,
2013-09-01 05:02:00,61.0,57.9,29.82,SSE,157,0.0,0.0,90,0.00,,,0.00,WUHU21636XXSP,2013-09-01 09:02:00,
2013-09-01 05:07:00,60.6,57.7,29.82,SSE,157,0.0,0.0,90,0.00,,,0.00,WUHU21636XXSP,2013-09-01 09:07:00,
2013-09-01 05:12:00,60.6,57.7,29.82,SSE,157,0.0,0.0,90,0.00,,,0.00,WUHU21636XXSP,2013-09-01 09:12:00,
2013-09-01 05:17:00,60.4,57.6,29.83,SSE,157,0.0,0.0,90,0.00,,,0.00,WUHU21636XXSP,2013-09-01 09:17:00,
2013-09-01 05:22:00,60.4,57.6,29.83,SSE,157,0.0,0.0,90,0.00,,,0.00,WUHU21636XXSP,2013-09-01 09:22:00,
2013-09-01 05:27:00,60.4,57.6,29.82,SSE,157,0.0,0.0,90,0.00,,,0.00,WUHU21636XXSP,2013-09-01 09:27:00,
2013-09-01 05:32:00,60.6,57.7,29.82,SSE,157,0.0,1.7,90,0.00,,,0.00,WUHU21636XXSP,2013-09-01 09:32:00,
2013-09-01 05:37:00,60.6,57.7,29.81,SSE,157,0.6,1.7,90,0.00,,,0.00,WUHU21636XXSP,2013-09-01 09:37:00,
2013-09-01 05:42:00,60.6,57.7,29.81,SE,135,2.6,2.6,90,0.00,,,0.00,WUHU21636XXSP,2013-09-01 09:42:00,
2013-09-01 05:47:00,60.8,57.9,29.81,SE,135,1.3,2.6,90,0.00,,,0.00,WUHU21636XXSP,2013-09-01 09:47:00,
2013-09-01 05:52:00,61.2,58.5,29.80,SE,135,1.7,2.6,91,0.00,,,0.00,WUHU21636XXSP,2013-09-01 09:52:00,
2013-09-01 05:57:00,61.3,58.6,29.80,ESE,112,2.6,5.1,91,0.00,,,0.00,WUHU21636XXSP,2013-09-01 09:57:00,
2013-09-01 06:02:00,61.3,58.6,29.79,SE,135,0.0,5.1,91,0.00,,,0.00,WUHU21636XXSP,2013-09-01 10:02:00,
2013-09-01 06:07:00,61.3,58.6,29.79,SE,135,1.5,2.6,91,0.00,,,0.00,WUHU21636XXSP,2013-09-01 10:07:00,
2013-09-01 06:12:00,61.5,58.8,29.79,SE,135,0.0,2.4,91,0.00,,,0.00,WUHU21636XXSP,2013-09-01 10:12:00,
2013-09-01 06:17:00,61.5,58.8,29.79,SSE,157,0.8,2.4,91,0.00,,,0.00,WUHU21636XXSP,2013-09-01 10:17:00,
2013-09-01 06:22:00,61.7,59.0,29.79,SE,135,2.6,3.8,91,0.00,,,0.00,WUHU21636XXSP,2013-09-01 10:22:00,
2013-09-01 06:27:00,61.5,58.8,29.79,SSE,157,2.9,6.9,91,0.00,,,0.00,WUHU21636XXSP,2013-09-01 10:27:00,
2013-09-01 06:32:00,61.7,59.0,29.79,SSE,157,4.4,6.9,91,0.00,,,0.00,WUHU21636XXSP,2013-09-01 10:32:00,
2013-09-01 06:37:00,61.9,59.2,29.79,SSE,157,1.7,4.9,91,0.00,,,0.00,WUHU21636XXSP,2013-09-01 10:37:00,
2013-09-01 06:41:00,61.7,59.0,29.79,SSE,157,0.0,4.4,91,0.00,,,0.00,WUHU21636XXSP,2013-09-01 10:41:00,
2013-09-01 06:46:00,61.7,59.0,29.79,SSE,157,1.5,1.7,91,0.00,,,0.00,WUHU21636XXSP,2013-09-01 10:46:00,
2013-09-01 06:51:00,61.7,59.0,29.79,SSE,157,0.6,1.5,91,0.00,,,0.00,WUHU21636XXSP,2013-09-01 10:51:00,
2013-09-01 06:56:00,61.9,59.2,29.79,SE,135,3.1,4.4,91,0.00,,,0.00,WUHU21636XXSP,2013-09-01 10:56:00,
2013-09-01 07:01:00,61.9,59.2,29.79,SE,135,1.1,4.4,91,0.00,,,0.00,WUHU21636XXSP,2013-09-01 11:01:00,
2013-09-01 07:06:00,61.9,59.2,29.79,SSE,157,0.8,1.3,91,0.00,,,0.00,WUHU21636XXSP,2013-09-01 11:06:00,
2013-09-01 07:11:00,61.9,59.2,29.79,SE,135,4.2,4.2,91,0.00,,,0.00,WUHU21636XXSP,2013-09-01 11:11:00,
2013-09-01 07:16:00,62.2,59.5,29.79,South,180,1.7,4.2,91,0.00,,,0.00,WUHU21636XXSP,2013-09-01 11:16:00,
2013-09-01 07:21:00,62.2,59.5,29.79,SSE,157,0.0,4.2,91,0.00,,,0.00,WUHU21636XXSP,2013-09-01 11:21:00,
2013-09-01 07:26:00,62.2,59.5,29.79,SE,135,2.2,3.5,91,0.00,,,0.00,WUHU21636XXSP,2013-09-01 11:26:00,
2013-09-01 07:31:00,62.4,59.7,29.79,SE,135,2.2,3.5,91,0.00,,,0.00,WUHU21636XXSP,2013-09-01 11:31:00,
2013-09-01 07:36:00,62.4,59.7,29.79,South,180,1.5,4.2,91,0.00,,,0.00,WUHU21636XXSP,2013-09-01 11:36:00,
2013-09-01 07:41:00,62.4,59.7,29.79,South,180,0.0,4.2,91,0.00,,,0.00,WUHU21636XXSP,2013-09-01 11:41:00,
2013-09-01 07:46:00,62.4,59.7,29.79,SSE,157,0.0,6.9,91,0.00,,,0.00,WUHU21636XXSP,2013-09-01 11:46:00,
2013-09-01 07:51:00,62.4,59.7,29.79,SE,135,4.2,6.9,91,0.00,,,0.00,WUHU21636XXSP,2013-09-01 11:51:00,
2013-09-01 07:56:00,62.6,59.9,29.79,SE,135,0.0,4.2,91,0.00,,,0.00,WUHU21636XXSP,2013-09-01 11:56:00,
2013-09-01 08:01:00,62.8,60.1,29.79,SE,135,2.6,4.2,91,0.00,,,0.00,WUHU21636XXSP,2013-09-01 12:01:00,
2013-09-01 08:06:00,63.0,60.3,29.79,SE,135,1.1,2.6,91,0.00,,,0.00,WUHU21636XXSP,2013-09-01 12:06:00,
2013-09-01 08:11:00,63.0,60.3,29.79,SSE,157,1.1,1.1,91,0.00,,,0.00,WUHU21636XXSP,2013-09-01 12:11:00,
2013-09-01 08:16:00,63.1,60.4,29.79,SE,135,2.2,2.2,91,0.00,,,0.00,WUHU21636XXSP,2013-09-01 12:16:00,
2013-09-01 08:21:00,63.3,60.6,29.79,SE,135,0.0,2.2,91,0.00,,,0.00,WUHU21636XXSP,2013-09-01 12:21:00,
2013-09-01 08:26:00,63.3,60.6,29.79,SSW,202,0.0,2.2,91,0.00,,,0.00,WUHU21636XXSP,2013-09-01 12:26:00,
2013-09-01 08:31:00,63.7,61.0,29.80,SSW,202,1.1,1.1,91,0.00,,,0.00,WUHU21636XXSP,2013-09-01 12:31:00,
2013-09-01 08:36:00,64.0,61.3,29.81,SW,225,1.1,4.6,91,0.00,,,0.00,WUHU21636XXSP,2013-09-01 12:36:00,
2013-09-01 08:41:00,64.4,61.7,29.81,SW,225,0.6,4.6,91,0.00,,,0.00,WUHU21636XXSP,2013-09-01 12:41:00,
2013-09-01 08:46:00,64.9,62.2,29.82,SW,225,0.0,1.1,91,0.00,,,0.00,WUHU21636XXSP,2013-09-01 12:46:00,
2013-09-01 08:51:00,64.9,62.2,29.82,SSW,202,1.1,2.9,91,0.00,,,0.00,WUHU21636XXSP,2013-09-01 12:51:00,
2013-09-01 08:56:00,65.1,62.4,29.82,South,180,0.0,2.9,91,0.00,,,0.00,WUHU21636XXSP,2013-09-01 12:56:00,
2013-09-01 09:01:00,65.1,62.4,29.82,SSE,157,3.1,3.1,91,0.00,,,0.00,WUHU21636XXSP,2013-09-01 13:01:00,
2013-09-01 09:06:00,65.3,62.2,29.82,South,180,1.5,3.1,90,0.00,,,0.00,WUHU21636XXSP,2013-09-01 13:06:00,
2013-09-01 09:11:00,65.3,62.4,29.81,SSE,157,2.9,6.7,90,0.00,,,0.00,WUHU21636XXSP,2013-09-01 13:11:00,
2013-09-01 09:16:00,65.5,62.6,29.81,SE,135,0.0,7.3,90,0.00,,,0.00,WUHU21636XXSP,2013-09-01 13:16:00,
2013-09-01 09:21:00,65.8,62.8,29.81,South,180,4.2,7.3,90,0.00,,,0.00,WUHU21636XXSP,2013-09-01 13:21:00,
2013-09-01 09:26:00,65.8,62.8,29.81,SSE,157,2.0,4.2,90,0.00,,,0.00,WUHU21636XXSP,2013-09-01 13:26:00,
2013-09-01 09:31:00,65.8,62.4,29.81,South,180,0.0,4.2,89,0.00,,,0.00,WUHU21636XXSP,2013-09-01 13:31:00,
2013-09-01 09:36:00,66.4,63.0,29.82,South,180,0.0,2.0,89,0.00,,,0.00,WUHU21636XXSP,2013-09-01 13:36:00,
2013-09-01 09:41:00,66.6,63.1,29.82,South,180,0.0,1.3,89,0.00,,,0.00,WUHU21636XXSP,2013-09-01 13:41:00,
2013-09-01 09:46:00,66.7,63.0,29.82,South,180,0.0,0.0,88,0.00,,,0.00,WUHU21636XXSP,2013-09-01 13:46:00,
2013-09-01 09:51:00,67.3,63.5,29.82,South,180,0.0,1.5,88,0.00,,,0.00,WUHU21636XXSP,2013-09-01 13:51:00,
2013-09-01 09:56:00,67.5,63.7,29.82,South,180,0.0,1.5,88,0.00,,,0.00,WUHU21636XXSP,2013-09-01 13:56:00,
2013-09-01 10:01:00,67.6,63.9,29.82,WSW,247,0.0,0.0,88,0.00,,,0.00,WUHU21636XXSP,2013-09-01 14:01:00,
2013-09-01 10:06:00,68.2,64.0,29.82,WSW,247,1.1,1.1,87,0.00,,,0.00,WUHU21636XXSP,2013-09-01 14:06:00,
2013-09-01 10:11:00,68.5,64.0,29.82,WSW,247,1.3,1.3,86,0.00,,,0.00,WUHU21636XXSP,2013-09-01 14:11:00,
2013-09-01 10:16:00,68.7,63.9,29.82,SSE,157,0.8,1.3,85,0.00,,,0.00,WUHU21636XXSP,2013-09-01 14:16:00,
2013-09-01 10:21:00,68.9,64.0,29.82,SSE,157,0.8,1.3,85,0.00,,,0.00,WUHU21636XXSP,2013-09-01 14:21:00,
2013-09-01 10:26:00,68.9,64.0,29.81,SSE,157,2.2,2.2,84,0.00,,,0.00,WUHU21636XXSP,2013-09-01 14:26:00,
2013-09-01 10:31:00,68.7,63.9,29.81,SSE,157,3.3,3.3,85,0.00,,,0.00,WUHU21636XXSP,2013-09-01 14:31:00,
2013-09-01 10:36:00,68.7,63.9,29.81,SSW,202,0.0,3.3,85,0.00,,,0.00,WUHU21636XXSP,2013-09-01 14:36:00,
2013-09-01 10:41:00,68.7,63.9,29.81,SSW,202,2.0,3.3,84,0.00,,,0.00,WUHU21636XXSP,2013-09-01 14:41:00,
2013-09-01 10:46:00,68.7,63.5,29.81,South,180,1.3,5.1,84,0.00,,,0.00,WUHU21636XXSP,2013-09-01 14:46:00,
2013-09-01 10:51:00,68.7,63.5,29.81,South,180,0.0,5.1,85,0.00,,,0.00,WUHU21636XXSP,2013-09-01 14:51:00,
2013-09-01 10:56:00,68.5,63.5,29.80,SE,135,0.6,1.5,84,0.00,,,0.00,WUHU21636XXSP,2013-09-01 14:56:00,
2013-09-01 11:01:00,68.7,63.9,29.80,SE,135,2.0,2.0,85,0.00,,,0.00,WUHU21636XXSP,2013-09-01 15:01:00,
2013-09-01 11:06:00,68.5,63.7,29.81,SSE,157,2.6,4.0,85,0.00,,,0.00,WUHU21636XXSP,2013-09-01 15:06:00,
2013-09-01 11:11:00,68.5,63.7,29.81,SSE,157,1.1,6.2,85,0.00,,,0.00,WUHU21636XXSP,2013-09-01 15:11:00,
2013-09-01 11:16:00,68.5,63.7,29.81,SE,135,0.6,6.7,85,0.00,,,0.00,WUHU21636XXSP,2013-09-01 15:16:00,
2013-09-01 11:21:00,68.5,63.5,29.80,SSW,202,0.0,7.8,84,0.00,,,0.00,WUHU21636XXSP,2013-09-01 15:21:00,
2013-09-01 11:26:00,68.9,64.0,29.80,SSE,157,0.0,7.8,85,0.00,,,0.00,WUHU21636XXSP,2013-09-01 15:26:00,
2013-09-01 11:31:00,69.1,64.2,29.80,SSW,202,2.6,3.3,85,0.00,,,0.00,WUHU21636XXSP,2013-09-01 15:31:00,
2013-09-01 11:36:00,69.4,64.2,29.80,SSE,157,2.4,6.7,84,0.00,,,0.00,WUHU21636XXSP,2013-09-01 15:36:00,
2013-09-01 11:41:00,70.3,64.8,29.80,SE,135,2.4,6.7,83,0.00,,,0.00,WUHU21636XXSP,2013-09-01 15:41:00,
2013-09-01 11:46:00,71.2,64.9,29.79,SSW,202,0.0,6.2,81,0.00,,,0.00,WUHU21636XXSP,2013-09-01 15:46:00,
2013-09-01 11:51:00,72.3,64.2,29.79,SW,225,2.9,7.3,76,0.00,,,0.00,WUHU21636XXSP,2013-09-01 15:51:00,
2013-09-01 11:56:00,73.2,65.5,29.79,SSW,202,4.0,7.3,77,0.00,,,0.00,WUHU21636XXSP,2013-09-01 15:56:00,
2013-09-01 12:01:00,74.5,64.8,29.79,SSW,202,4.0,10.2,72,0.00,,,0.00,WUHU21636XXSP,2013-09-01 16:01:00,
2013-09-01 12:06:00,75.0,65.3,29.78,SSE,157,1.5,10.2,72,0.00,,,0.00,WUHU21636XXSP,2013-09-01 16:06:00,
2013-09-01 12:11:00,75.0,64.9,29.77,SE,135,5.1,6.7,71,0.00,,,0.00,WUHU21636XXSP,2013-09-01 16:11:00,
2013-09-01 12:16:00,75.0,65.3,29.77,SE,135,0.6,5.1,72,0.00,,,0.00,WUHU21636XXSP,2013-09-01 16:16:00,
2013-09-01 12:21:00,74.8,64.4,29.77,East,90,1.3,5.1,72,0.00,,,0.00,WUHU21636XXSP,2013-09-01 16:21:00,
2013-09-01 12:26:00,75.4,64.9,29.76,SE,135,3.8,4.2,70,0.00,,,0.00,WUHU21636XXSP,2013-09-01 16:26:00,
2013-09-01 12:31:00,75.9,64.0,29.77,SW,225,4.4,8.9,67,0.00,,,0.00,WUHU21636XXSP,2013-09-01 16:31:00,
2013-09-01 12:36:00,75.6,63.7,29.76,SSW,202,0.8,9.3,67,0.00,,,0.00,WUHU21636XXSP,2013-09-01 16:36:00,
2013-09-01 12:41:00,75.4,64.0,29.76,SSW,202,3.3,9.3,68,0.00,,,0.00,WUHU21636XXSP,2013-09-01 16:41:00,
2013-09-01 12:46:00,75.6,63.7,29.76,SSE,157,1.7,6.9,67,0.00,,,0.00,WUHU21636XXSP,2013-09-01 16:46:00,
2013-09-01 12:51:00,75.7,64.4,29.77,SW,225,1.1,3.3,68,0.00,,,0.00,WUHU21636XXSP,2013-09-01 16:51:00,
2013-09-01 12:56:00,75.9,64.6,29.76,SSW,202,5.1,6.2,68,0.00,,,0.00,WUHU21636XXSP,2013-09-01 16:56:00,
2013-09-01 13:01:00,75.9,64.0,29.77,SSE,157,5.5,9.8,67,0.00,,,0.00,WUHU21636XXSP,2013-09-01 17:01:00,
2013-09-01 13:06:00,75.4,63.5,29.77,SSW,202,4.0,9.8,67,0.00,,,0.00,WUHU21636XXSP,2013-09-01 17:06:00,
2013-09-01 13:11:00,75.2,63.3,29.77,South,180,0.0,5.5,68,0.00,,,0.00,WUHU21636XXSP,2013-09-01 17:11:00,
2013-09-01 13:16:00,75.4,64.0,29.76,South,180,0.0,2.4,68,0.00,,,0.00,WUHU21636XXSP,2013-09-01 17:16:00,
2013-09-01 13:21:00,75.6,64.2,29.76,South,180,0.0,1.5,69,0.00,,,0.00,WUHU21636XXSP,2013-09-01 17:21:00,
2013-09-01 13:26:00,75.7,64.9,29.76,South,180,0.0,1.5,69,0.00,,,0.00,WUHU21636XXSP,2013-09-01 17:26:00,
2013-09-01 13:31:00,76.3,65.3,29.77,South,180,0.0,0.0,69,0.00,,,0.00,WUHU21636XXSP,2013-09-01 17:31:00,
2013-09-01 13:36:00,76.6,64.4,29.77,West,270,0.0,0.8,66,0.00,,,0.00,WUHU21636XXSP,2013-09-01 17:36:00,
2013-09-01 13:41:00,76.6,64.4,29.78,West,270,2.6,2.6,68,0.00,,,0.00,WUHU21636XXSP,2013-09-01 17:41:00,
2013-09-01 13:46:00,77.2,64.8,29.79,WNW,292,3.3,4.2,66,0.00,,,0.00,WUHU21636XXSP,2013-09-01 17:46:00,
2013-09-01 13:51:00,77.4,64.9,29.79,WSW,247,0.0,4.2,67,0.00,,,0.00,WUHU21636XXSP,2013-09-01 17:51:00,
2013-09-01 13:56:00,77.4,64.6,29.79,West,270,0.0,3.3,65,0.00,,,0.00,WUHU21636XXSP,2013-09-01 17:56:00,
2013-09-01 14:01:00,77.2,63.9,29.79,WNW,292,4.0,4.0,64,0.00,,,0.00,WUHU21636XXSP,2013-09-01 18:01:00,
2013-09-01 14:06:00,76.3,64.0,29.79,NW,315,4.4,4.4,66,0.00,,,0.00,WUHU21636XXSP,2013-09-01 18:06:00,
2013-09-01 14:11:00,75.7,64.8,29.79,NW,315,0.0,4.4,69,0.00,,,0.00,WUHU21636XXSP,2013-09-01 18:11:00,
2013-09-01 14:16:00,75.7,64.4,29.79,NNW,337,4.6,7.8,68,0.00,,,0.00,WUHU21636XXSP,2013-09-01 18:16:00,
2013-09-01 14:21:00,74.8,63.9,29.79,NNW,337,3.1,7.8,69,0.00,,,0.00,WUHU21636XXSP,2013-09-01 18:21:00,
2013-09-01 14:26:00,74.5,63.5,29.79,North,0,1.3,6.4,69,0.00,,,0.00,WUHU21636XXSP,2013-09-01 18:26:00,
2013-09-01 14:31:00,74.5,64.4,29.78,NNW,337,2.4,3.1,71,0.00,,,0.00,WUHU21636XXSP,2013-09-01 18:31:00,
2013-09-01 14:36:00,74.8,64.8,29.77,NNW,337,0.0,14.3,71,0.00,,,0.00,WUHU21636XXSP,2013-09-01 18:36:00,
2013-09-01 14:41:00,75.0,65.3,29.78,NNW,337,0.0,14.3,71,0.00,,,0.00,WUHU21636XXSP,2013-09-01 18:41:00,
2013-09-01 14:46:00,74.3,64.2,29.78,NNW,337,2.4,4.0,71,0.00,,,0.00,WUHU21636XXSP,2013-09-01 18:46:00,
2013-09-01 14:51:00,74.1,64.0,29.78,WNW,292,3.8,4.0,72,0.00,,,0.00,WUHU21636XXSP,2013-09-01 18:51:00,
2013-09-01 14:56:00,74.3,64.6,29.78,WNW,292,0.0,3.8,71,0.00,,,0.00,WUHU21636XXSP,2013-09-01 18:56:00,
2013-09-01 15:01:00,74.8,65.5,29.78,NW,315,0.0,3.8,73,0.00,,,0.00,WUHU21636XXSP,2013-09-01 19:01:00,
2013-09-01 15:06:00,74.8,65.5,29.77,NW,315,0.0,3.8,72,0.00,,,0.00,WUHU21636XXSP,2013-09-01 19:06:00,
2013-09-01 15:11:00,74.7,64.9,29.75,NW,315,0.0,0.0,72,0.00,,,0.00,WUHU21636XXSP,2013-09-01 19:11:00,
2013-09-01 15:16:00,74.5,64.8,29.74,NW,315,1.1,1.3,73,0.00,,,0.00,WUHU21636XXSP,2013-09-01 19:16:00,
2013-09-01 15:21:00,74.3,65.5,29.74,NW,315,0.0,1.3,74,0.00,,,0.00,WUHU21636XXSP,2013-09-01 19:21:00,
2013-09-01 15:26:00,74.5,66.0,29.74,NW,315,0.0,1.1,75,0.00,,,0.00,WUHU21636XXSP,2013-09-01 19:26:00,
2013-09-01 15:31:00,74.5,65.1,29.74,SSE,157,4.0,4.0,73,0.00,,,0.00,WUHU21636XXSP,2013-09-01 19:31:00,
2013-09-01 15:36:00,74.5,64.8,29.74,SSE,157,0.2,4.6,72,0.00,,,0.00,WUHU21636XXSP,2013-09-01 19:36:00,
2013-09-01 15:41:00,74.8,64.8,29.74,SSE,157,3.8,4.6,71,0.00,,,0.00,WUHU21636XXSP,2013-09-01 19:41:00,
2013-09-01 15:46:00,75.2,65.5,29.73,SE,135,0.0,3.8,72,0.00,,,0.00,WUHU21636XXSP,2013-09-01 19:46:00,
2013-09-01 15:51:00,75.9,64.9,29.73,SE,135,0.0,3.8,69,0.00,,,0.00,WUHU21636XXSP,2013-09-01 19:51:00,
2013-09-01 15:56:00,75.9,64.9,29.73,SE,135,2.4,2.4,70,0.02,,,0.00,WUHU21636XXSP,2013-09-01 19:56:00,
2013-09-01 16:01:00,75.9,64.9,29.72,SE,135,0.0,2.4,71,0.02,,,0.00,WUHU21636XXSP,2013-09-01 20:01:00,
2013-09-01 16:06:00,75.9,65.5,29.72,SE,135,6.4,7.8,68,0.02,,,0.00,WUHU21636XXSP,2013-09-01 20:06:00,
2013-09-01 16:11:00,76.3,66.6,29.73,SE,135,3.3,8.9,68,0.02,,,0.00,WUHU21636XXSP,2013-09-01 20:11:00,
2013-09-01 16:16:00,75.6,64.2,29.72,SE,135,0.0,8.9,68,0.02,,,0.00,WUHU21636XXSP,2013-09-01 20:16:00,
2013-09-01 16:21:00,75.2,64.0,29.71,SE,135,2.0,8.2,69,0.02,,,0.00,WUHU21636XXSP,2013-09-01 20:21:00,
2013-09-01 16:26:00,74.8,64.4,29.72,SE,135,1.7,4.9,70,0.02,,,0.00,WUHU21636XXSP,2013-09-01 20:26:00,
2013-09-01 16:31:00,74.8,64.4,29.72,ESE,112,0.0,2.0,71,0.02,,,0.00,WUHU21636XXSP,2013-09-01 20:31:00,
2013-09-01 16:36:00,74.5,64.4,29.72,ESE,112,0.0,1.7,71,0.02,,,0.00,WUHU21636XXSP,2013-09-01 20:36:00,
2013-09-01 16:41:00,74.1,64.4,29.71,ESE,112,0.0,0.0,72,0.02,,,0.00,WUHU21636XXSP,2013-09-01 20:41:00,
2013-09-01 16:46:00,73.9,65.1,29.71,ESE,112,0.0,0.0,74,0.02,,,0.00,WUHU21636XXSP,2013-09-01 20:46:00,
2013-09-01 16:51:00,73.2,64.8,29.71,ESE,112,0.0,0.0,75,0.02,,,0.00,WUHU21636XXSP,2013-09-01 20:51:00,
2013-09-01 16:56:00,72.7,64.9,29.71,ESE,112,0.0,0.0,77,0.02,,,0.00,WUHU21636XXSP,2013-09-01 20:56:00,
2013-09-01 17:01:00,72.1,65.0,29.71,ESE,112,0.0,0.0,78,0.02,,,0.00,WUHU21636XXSP,2013-09-01 21:01:00,
2013-09-01 17:06:00,71.8,64.8,29.71,ESE,112,0.0,0.0,79,0.02,,,0.00,WUHU21636XXSP,2013-09-01 21:06:00,
2013-09-01 17:11:00,71.1,65.1,29.70,ESE,112,0.0,0.0,82,0.02,,,0.00,WUHU21636XXSP,2013-09-01 21:11:00,
2013-09-01 17:16:00,70.7,65.1,29.71,ESE,112,0.0,0.0,83,0.02,,,0.00,WUHU21636XXSP,2013-09-01 21:16:00,
2013-09-01 17:21:00,70.5,64.9,29.70,ESE,112,0.0,0.0,83,0.02,,,0.00,WUHU21636XXSP,2013-09-01 21:21:00,
2013-09-01 17:26:00,70.2,65.5,29.72,ESE,112,1.5,1.5,86,0.02,,,0.00,WUHU21636XXSP,2013-09-01 21:26:00,
2013-09-01 17:31:00,69.6,65.5,29.72,ESE,112,0.0,1.5,87,0.02,,,0.00,WUHU21636XXSP,2013-09-01 21:31:00,
2013-09-01 17:36:00,69.4,65.3,29.72,ESE,112,0.0,1.5,87,0.02,,,0.00,WUHU21636XXSP,2013-09-01 21:36:00,
2013-09-01 17:41:00,69.6,65.8,29.72,ESE,112,0.0,0.0,88,0.06,,,0.00,WUHU21636XXSP,2013-09-01 21:41:00,
2013-09-01 17:46:00,69.6,65.8,29.72,ESE,112,0.0,0.0,88,0.08,,,0.00,WUHU21636XXSP,2013-09-01 21:46:00,
2013-09-01 17:51:00,70.0,66.6,29.72,ESE,112,0.0,0.0,89,0.08,,,0.00,WUHU21636XXSP,2013-09-01 21:51:00,
2013-09-01 17:56:00,70.2,66.7,29.72,ESE,112,0.0,0.0,88,0.08,,,0.00,WUHU21636XXSP,2013-09-01 21:56:00,
2013-09-01 18:01:00,70.2,66.7,29.72,ESE,112,0.0,0.0,88,0.06,,,0.00,WUHU21636XXSP,2013-09-01 22:01:00,
2013-09-01 18:06:00,70.2,66.5,29.72,ESE,112,0.0,0.0,88,0.06,,,0.00,WUHU21636XXSP,2013-09-01 22:06:00,
2013-09-01 18:11:00,70.0,66.2,29.72,ESE,112,0.0,0.0,88,0.06,,,0.00,WUHU21636XXSP,2013-09-01 22:11:00,
2013-09-01 18:16:00,70.2,66.7,29.72,ESE,112,0.0,0.0,89,0.06,,,0.00,WUHU21636XXSP,2013-09-01 22:16:00,
2013-09-01 18:21:00,70.3,66.9,29.72,ESE,112,0.0,0.0,89,0.06,,,0.00,WUHU21636XXSP,2013-09-01 22:21:00,
2013-09-01 18:26:00,70.5,67.1,29.72,ESE,112,0.0,0.0,89,0.06,,,0.00,WUHU21636XXSP,2013-09-01 22:26:00,
2013-09-01 18:31:00,70.5,67.1,29.72,ESE,112,0.0,0.0,89,0.06,,,0.00,WUHU21636XXSP,2013-09-01 22:31:00,
2013-09-01 18:36:00,70.5,67.1,29.72,SSE,157,0.0,3.1,88,0.06,,,0.00,WUHU21636XXSP,2013-09-01 22:36:00,
2013-09-01 18:41:00,70.3,66.6,29.73,South,180,1.5,6.4,88,0.06,,,0.00,WUHU21636XXSP,2013-09-01 22:41:00,
2013-09-01 18:46:00,70.2,66.4,29.73,SW,225,0.0,6.4,88,0.06,,,0.00,WUHU21636XXSP,2013-09-01 22:46:00,
2013-09-01 18:51:00,70.2,66.4,29.73,SW,225,0.0,1.3,88,0.06,,,0.00,WUHU21636XXSP,2013-09-01 22:51:00,
2013-09-01 18:56:00,70.0,66.2,29.73,SW,225,0.0,0.0,88,0.06,,,0.00,WUHU21636XXSP,2013-09-01 22:56:00,
2013-09-01 19:01:00,70.0,66.2,29.73,SW,225,0.0,0.0,88,0.00,,,0.00,WUHU21636XXSP,2013-09-01 23:01:00,
2013-09-01 19:06:00,70.0,66.2,29.72,SW,225,0.0,0.0,88,0.00,,,0.00,WUHU21636XXSP,2013-09-01 23:06:00,
2013-09-01 19:11:00,70.2,66.4,29.72,SW,225,0.0,0.0,88,0.00,,,0.00,WUHU21636XXSP,2013-09-01 23:11:00,
2013-09-01 19:16:00,70.3,66.6,29.72,SW,225,0.0,0.4,88,0.00,,,0.00,WUHU21636XXSP,2013-09-01 23:16:00,
2013-09-01 19:21:00,70.3,66.6,29.72,SW,225,0.0,0.4,88,0.00,,,0.00,WUHU21636XXSP,2013-09-01 23:21:00,
2013-09-01 19:26:00,70.3,66.6,29.72,SW,225,0.0,0.0,88,0.00,,,0.00,WUHU21636XXSP,2013-09-01 23:26:00,
2013-09-01 19:31:00,70.2,66.4,29.72,SSW,202,0.0,3.3,88,0.00,,,0.00,WUHU21636XXSP,2013-09-01 23:31:00,
2013-09-01 19:36:00,70.3,66.6,29.72,SSW,202,0.0,3.3,88,0.00,,,0.00,WUHU21636XXSP,2013-09-01 23:36:00,
2013-09-01 19:41:00,70.3,66.6,29.73,SSW,202,0.0,0.0,88,0.00,,,0.00,WUHU21636XXSP,2013-09-01 23:41:00,
2013-09-01 19:46:00,70.2,66.4,29.73,SSW,202,2.0,2.0,88,0.00,,,0.00,WUHU21636XXSP,2013-09-01 23:46:00,
2013-09-01 19:51:00,69.6,65.8,29.73,SSW,202,0.0,2.2,88,0.00,,,0.00,WUHU21636XXSP,2013-09-01 23:51:00,
2013-09-01 19:56:00,69.4,65.7,29.73,SSE,157,0.4,2.2,88,0.00,,,0.00,WUHU21636XXSP,2013-09-01 23:56:00,
2013-09-01 20:01:00,69.4,65.7,29.73,SSE,157,0.0,0.4,88,0.00,,,0.00,WUHU21636XXSP,2013-09-02 00:01:00,
2013-09-01 20:06:00,68.9,65.1,29.73,SSE,157,0.0,0.0,88,0.00,,,0.00,WUHU21636XXSP,2013-09-02 00:06:00,
2013-09-01 20:11:00,68.5,64.8,29.73,SSE,157,0.0,0.0,88,0.00,,,0.00,WUHU21636XXSP,2013-09-02 00:11:00,
2013-09-01 20:16:00,68.2,64.0,29.73,South,180,2.9,2.9,88,0.00,,,0.00,WUHU21636XXSP,2013-09-02 00:16:00,
2013-09-01 20:21:00,67.6,63.9,29.73,South,180,0.0,2.9,88,0.00,,,0.00,WUHU21636XXSP,2013-09-02 00:21:00,
2013-09-01 20:26:00,67.6,63.9,29.74,South,180,0.0,2.9,88,0.00,,,0.00,WUHU21636XXSP,2013-09-02 00:26:00,
2013-09-01 20:31:00,67.3,63.5,29.73,South,180,0.0,0.0,88,0.00,,,0.00,WUHU21636XXSP,2013-09-02 00:31:00,
2013-09-01 20:36:00,66.9,63.1,29.73,South,180,0.0,0.0,89,0.00,,,0.00,WUHU21636XXSP,2013-09-02 00:36:00,
2013-09-01 20:41:00,66.7,63.3,29.74,South,180,0.0,0.0,89,0.00,,,0.00,WUHU21636XXSP,2013-09-02 00:41:00,
2013-09-01 20:46:00,66.7,63.1,29.74,South,180,0.0,0.0,89,0.00,,,0.00,WUHU21636XXSP,2013-09-02 00:46:00,
2013-09-01 20:51:00,66.6,63.1,29.74,South,180,0.0,0.0,89,0.00,,,0.00,WUHU21636XXSP,2013-09-02 00:51:00,
2013-09-01 20:56:00,66.4,63.0,29.74,South,180,0.0,0.0,89,0.00,,,0.00,WUHU21636XXSP,2013-09-02 00:56:00,
2013-09-01 21:01:00,66.4,63.0,29.74,South,180,0.0,0.0,89,0.00,,,0.00,WUHU21636XXSP,2013-09-02 01:01:00,
2013-09-01 21:06:00,66.4,63.0,29.74,South,180,0.0,0.0,90,0.00,,,0.00,WUHU21636XXSP,2013-09-02 01:06:00,
2013-09-01 21:11:00,66.4,63.0,29.74,South,180,0.0,0.0,90,0.00,,,0.00,WUHU21636XXSP,2013-09-02 01:11:00,
2013-09-01 21:16:00,66.4,63.0,29.74,South,180,0.0,0.0,90,0.00,,,0.00,WUHU21636XXSP,2013-09-02 01:16:00,
2013-09-01 21:21:00,66.2,63.1,29.75,South,180,0.0,0.0,90,0.00,,,0.00,WUHU21636XXSP,2013-09-02 01:21:00,
2013-09-01 21:26:00,66.2,63.1,29.75,South,180,0.0,0.0,90,0.00,,,0.00,WUHU21636XXSP,2013-09-02 01:26:00,
2013-09-01 21:31:00,66.2,63.1,29.75,South,180,0.0,0.0,91,0.00,,,0.00,WUHU21636XXSP,2013-09-02 01:31:00,
2013-09-01 21:36:00,66.6,63.7,29.76,NW,315,5.3,11.1,91,0.00,,,0.00,WUHU21636XXSP,2013-09-02 01:36:00,
2013-09-01 21:41:00,66.4,63.5,29.76,North,0,0.0,11.1,91,0.00,,,0.00,WUHU21636XXSP,2013-09-02 01:41:00,
2013-09-01 21:46:00,66.2,63.1,29.76,NNW,337,0.0,7.6,90,0.00,,,0.00,WUHU21636XXSP,2013-09-02 01:46:00,
2013-09-01 21:51:00,66.0,63.0,29.76,North,0,0.0,7.6,90,0.00,,,0.00,WUHU21636XXSP,2013-09-02 01:51:00,
2013-09-01 21:56:00,65.8,62.8,29.77,North,0,0.0,9.6,90,0.00,,,0.00,WUHU21636XXSP,2013-09-02 01:56:00,
2013-09-01 22:01:00,65.8,62.8,29.77,WSW,247,0.0,9.6,90,0.00,,,0.00,WUHU21636XXSP,2013-09-02 02:01:00,
2013-09-01 22:06:00,65.5,62.1,29.76,WNW,292,3.5,9.3,89,0.00,,,0.00,WUHU21636XXSP,2013-09-02 02:06:00,
2013-09-01 22:11:00,64.9,61.2,29.76,NNE,22,4.0,9.3,88,0.00,,,0.00,WUHU21636XXSP,2013-09-02 02:11:00,
2013-09-01 22:16:00,64.6,61.0,29.77,NW,315,0.4,4.2,88,0.00,,,0.00,WUHU21636XXSP,2013-09-02 02:16:00,
2013-09-01 22:21:00,64.2,61.0,29.77,WNW,292,3.8,4.0,89,0.00,,,0.00,WUHU21636XXSP,2013-09-02 02:21:00,
2013-09-01 22:26:00,64.0,60.8,29.77,NW,315,0.0,4.0,89,0.00,,,0.00,WUHU21636XXSP,2013-09-02 02:26:00,
2013-09-01 22:31:00,63.7,60.4,29.77,NW,315,0.0,7.8,89,0.00,,,0.00,WUHU21636XXSP,2013-09-02 02:31:00,
2013-09-01 22:36:00,63.7,60.4,29.77,NNW,337,3.1,7.8,89,0.00,,,0.00,WUHU21636XXSP,2013-09-02 02:36:00,
2013-09-01 22:41:00,63.7,60.4,29.77,WNW,292,2.2,15.2,89,0.00,,,0.00,WUHU21636XXSP,2013-09-02 02:41:00,
2013-09-01 22:46:00,63.5,60.3,29.77,NW,315,2.6,15.2,89,0.00,,,0.00,WUHU21636XXSP,2013-09-02 02:46:00,
2013-09-01 22:51:00,63.3,60.1,29.77,NNW,337,0.0,10.5,89,0.00,,,0.00,WUHU21636XXSP,2013-09-02 02:51:00,
2013-09-01 22:56:00,63.1,59.5,29.78,NNW,337,0.0,0.6,88,0.00,,,0.00,WUHU21636XXSP,2013-09-02 02:56:00,
2013-09-01 23:01:00,63.0,59.4,29.78,NW,315,2.2,2.2,89,0.00,,,0.00,WUHU21636XXSP,2013-09-02 03:01:00,
2013-09-01 23:06:00,62.8,59.5,29.78,NNW,337,3.3,8.7,89,0.00,,,0.00,WUHU21636XXSP,2013-09-02 03:06:00,
2013-09-01 23:11:00,62.8,59.5,29.78,NW,315,5.3,13.8,89,0.00,,,0.00,WUHU21636XXSP,2013-09-02 03:11:00,
2013-09-01 23:16:00,62.4,59.2,29.78,NNW,337,2.4,14.3,89,0.00,,,0.00,WUHU21636XXSP,2013-09-02 03:16:00,
2013-09-01 23:21:00,62.4,58.8,29.78,NW,315,3.8,15.4,88,0.00,,,0.00,WUHU21636XXSP,2013-09-02 03:21:00,
2013-09-01 23:26:00,62.2,58.6,29.78,NNW,337,0.0,15.4,88,0.00,,,0.00,WUHU21636XXSP,2013-09-02 03:26:00,
2013-09-01 23:31:00,62.1,58.1,29.78,NNW,337,0.0,4.9,87,0.00,,,0.00,WUHU21636XXSP,2013-09-02 03:31:00,
2013-09-01 23:36:00,61.5,57.2,29.78,NW,315,4.2,7.3,86,0.00,,,0.00,WUHU21636XXSP,2013-09-02 03:36:00,
2013-09-01 23:41:00,61.3,57.0,29.79,NNW,337,0.8,11.8,86,0.00,,,0.00,WUHU21636XXSP,2013-09-02 03:41:00,
2013-09-01 23:46:00,61.2,57.2,29.79,WNW,292,4.2,11.8,87,0.00,,,0.00,WUHU21636XXSP,2013-09-02 03:46:00,
2013-09-01 23:51:00,60.8,56.8,29.79,NW,315,5.3,31.0,87,0.00,,,0.00,WUHU21636XXSP,2013-09-02 03:51:00,
2013-09-01 23:56:00,60.4,56.5,29.79,NW,315,2.6,31.0,87,0.00,,,0.00,WUHU21636XXSP,2013-09-02 03:56:00,